FW0844 Weather Reports


time (UTC)temp
C
wind
direction
speed
KPH
gust
KPH
rain 1hr
cm
rain 24hr
cm
rain mn
cm
humidity
%
barometer
mb
20260507115513 3 360 0.0 0.0 0.00 0.20 0.00 95 1012.2
20260507115055 3 360 0.0 0.0 0.00 0.20 0.00 95 1012.2
20260507114539 3 320 0.0 0.0 0.00 0.20 0.00 95 1012.3
20260507114014 3 321 0.0 0.0 0.00 0.20 0.00 95 1012.3
20260507113558 3 321 0.0 0.0 0.00 0.20 0.00 95 1012.4
20260507113039 3 321 0.0 0.0 0.00 0.20 0.00 95 1012.2
20260507112508 2 321 0.0 0.0 0.00 0.20 0.00 95 1012.1
20260507112104 2 321 0.0 0.0 0.00 0.20 0.00 95 1012.1
20260507111541 2 321 0.0 0.0 0.00 0.20 0.00 95 1012.1
20260507111022 2 321 0.0 0.0 0.00 0.20 0.00 95 1012.0
20260507110604 2 321 0.0 3.2 0.00 0.28 0.00 95 1011.8
20260507110043 2 320 0.0 3.2 0.00 0.28 0.00 95 1011.7
20260507105524 2 319 0.0 0.0 0.00 0.28 0.00 95 1011.8
20260507105109 2 319 0.0 0.0 0.00 0.28 0.00 95 1011.8
20260507104548 1 319 0.0 0.0 0.00 0.28 0.00 95 1011.7
20260507104029 1 321 0.0 0.0 0.00 0.28 0.00 95 1011.7
20260507103500 1 321 0.0 0.0 0.00 0.28 0.00 95 1011.5
20260507103053 1 321 0.0 0.0 0.00 0.28 0.00 94 1011.5
20260507102534 1 321 0.0 1.6 0.00 0.28 0.00 94 1011.4
20260507102007 1 320 0.0 1.6 0.00 0.28 0.00 94 1011.4
20260507101558 1 319 0.0 0.0 0.00 0.28 0.00 95 1011.6
20260507101038 1 319 0.0 0.0 0.00 0.28 0.00 94 1011.8
20260507100521 1 319 0.0 3.2 0.00 0.48 0.00 95 1011.3
20260507100100 1 318 0.0 0.0 0.00 0.48 0.00 94 1011.3
20260507095539 1 319 0.0 0.0 0.00 0.48 0.00 94 1011.3
20260507095011 1 319 0.0 0.0 0.00 0.48 0.00 94 1011.2
20260507094605 1 319 0.0 0.0 0.00 0.48 0.00 94 1011.3
20260507094044 1 318 0.0 0.0 0.00 0.48 0.00 94 1011.6
20260507093524 1 360 0.0 0.0 0.00 0.48 0.00 94 1011.6
20260507093116 1 360 0.0 0.0 0.00 0.48 0.00 94 1011.6
20260507092553 1 318 0.0 1.6 0.00 0.48 0.00 94 1011.6
20260507092030 1 360 0.0 1.6 0.00 0.48 0.00 94 1011.6
20260507091503 1 360 0.0 1.6 0.00 0.48 0.00 93 1011.7
20260507091058 1 318 0.0 0.0 0.00 0.48 0.00 94 1011.6
20260507090534 1 321 0.0 1.6 0.00 0.64 0.00 94 1011.6
20260507090021 1 321 0.0 1.6 0.00 0.64 0.00 94 1011.6
20260507085602 1 321 0.0 3.2 0.00 0.64 0.00 93 1011.5
20260507085040 1 321 0.0 3.2 0.00 0.64 0.00 93 1011.4
20260507084516 1 321 0.0 1.6 0.00 0.64 0.00 93 1011.4
20260507084104 1 321 0.0 0.0 0.00 0.64 0.00 93 1011.2
20260507083544 2 321 0.0 0.0 0.00 0.64 0.00 93 1011.3
20260507083024 2 321 0.0 0.0 0.00 0.64 0.00 93 1011.9
20260507082608 2 321 0.0 1.6 0.00 0.64 0.00 93 1011.4
20260507082048 2 321 0.0 1.6 0.00 0.64 0.00 93 1011.4
20260507081530 2 321 0.0 0.0 0.00 0.64 0.00 93 1011.4
20260507081113 2 321 0.0 0.0 0.00 0.64 0.00 93 1011.3
20260507080552 2 321 0.0 1.6 0.00 0.76 0.00 92 1011.4
20260507080039 2 321 0.0 1.6 0.00 0.76 0.00 92 1011.4
20260507075515 2 321 0.0 0.0 0.00 0.76 0.00 92 1011.4
20260507075058 2 321 0.0 0.0 0.00 0.76 0.00 92 1011.4
20260507074539 2 321 0.0 0.0 0.00 0.76 0.00 92 1011.4
20260507074012 3 321 0.0 0.0 0.00 0.76 0.00 92 1011.5
20260507073603 3 321 0.0 0.0 0.00 0.76 0.00 92 1011.5
20260507073042 3 321 0.0 0.0 0.00 0.76 0.00 92 1011.5
20260507072522 3 320 0.0 0.0 0.00 0.76 0.00 91 1011.5
20260507072104 3 321 0.0 0.0 0.00 0.76 0.00 91 1011.7
20260507071601 3 321 0.0 0.0 0.00 0.76 0.00 91 1011.7
20260507071024 3 319 0.0 0.0 0.00 0.76 0.00 91 1011.8
20260507070606 3 319 0.0 0.0 0.00 0.76 0.00 91 1011.9
20260507070047 4 360 0.0 0.0 0.00 1.14 0.00 91 1011.8
20260507065530 4 360 0.0 0.0 0.00 1.14 0.00 90 1011.8
20260507065109 4 360 0.0 0.0 0.00 1.14 0.00 91 1011.6
20260507064550 4 360 0.0 0.0 0.00 1.14 0.00 90 1011.8
20260507064031 4 360 0.0 0.0 0.00 1.14 0.00 90 1011.7
20260507063613 5 360 0.0 0.0 0.00 1.14 0.00 90 1011.6
20260507063055 5 360 0.0 0.0 0.00 1.14 0.00 90 1011.5
20260507062533 5 360 0.0 0.0 0.00 1.14 0.00 90 1011.6
20260507062004 5 321 0.0 0.0 0.00 1.14 0.00 90 1011.7
20260507061558 5 360 0.0 0.0 0.00 1.14 0.00 90 1011.7
20260507061036 5 321 0.0 0.0 0.00 1.14 0.00 90 1011.7
20260507060513 5 317 0.0 0.0 0.00 1.42 0.00 89 1011.7
20260507060058 5 317 0.0 0.0 0.00 1.42 0.00 89 1011.8
20260507055535 5 360 0.0 0.0 0.00 1.42 0.00 89 1011.7
20260507055007 5 360 0.0 0.0 0.00 1.42 0.00 89 1012.0
20260507054559 5 360 0.0 0.0 0.00 1.42 0.00 89 1012.2
20260507054038 5 360 0.0 0.0 0.00 1.42 0.00 89 1012.2
20260507053506 5 360 0.0 1.6 0.00 1.42 0.00 89 1012.2
20260507053127 5 360 0.0 1.6 0.00 1.42 0.00 88 1012.2
20260507052538 5 360 0.0 0.0 0.00 1.42 0.00 88 1012.3
20260507052020 5 360 0.0 0.0 0.00 1.42 0.00 88 1012.4
20260507051607 5 360 0.0 0.0 0.00 1.42 0.00 88 1012.3
20260507051043 5 360 0.0 0.0 0.00 1.42 0.00 87 1012.4
20260507050513 5 360 0.0 3.2 0.00 1.57 0.00 87 1012.2
20260507050113 5 360 0.0 3.2 0.00 1.57 0.00 87 1012.4
20260507045548 5 360 0.0 3.2 0.00 1.57 0.00 86 1012.5
20260507045026 5 360 0.0 3.2 0.00 1.57 0.00 86 1012.5
20260507044608 5 360 0.0 3.2 0.00 1.57 0.00 87 1012.5
20260507044051 5 360 0.0 4.8 0.00 1.57 0.00 87 1012.4
20260507043530 5 360 0.0 4.8 0.00 1.57 0.00 88 1012.4
20260507043111 5 360 0.0 0.0 0.00 1.57 0.00 88 1012.4
20260507042552 5 360 0.0 1.6 0.00 1.57 0.00 88 1012.4
20260507042034 5 360 0.0 3.2 0.00 1.57 0.00 88 1012.3
20260507041505 5 360 0.0 3.2 0.00 1.57 0.00 88 1012.2
20260507041101 5 360 0.0 3.2 0.00 1.57 0.00 88 1012.2
20260507040538 5 360 0.0 3.2 0.00 1.73 1.57 88 1012.2
20260507040009 5 360 0.0 3.2 0.00 1.73 1.57 88 1012.2
20260507035603 5 360 0.0 4.8 0.00 1.73 1.57 88 1012.1
20260507035039 5 360 0.0 4.8 0.00 1.73 1.57 88 1012.0
20260507034531 5 360 1.6 6.4 0.00 1.73 1.57 88 1012.0
20260507034102 5 360 1.6 6.4 0.00 1.73 1.57 88 1012.0
20260507033541 5 360 1.6 4.8 0.00 1.73 1.57 88 1012.0
20260507033022 5 360 0.0 3.2 0.00 1.73 1.57 89 1012.0
20260507032608 5 360 0.0 3.2 0.00 1.73 1.57 89 1012.1
20260507032047 5 360 0.0 0.0 0.00 1.73 1.57 89 1012.1
20260507031528 5 360 0.0 0.0 0.00 1.73 1.57 89 1012.1
20260507031112 5 360 0.0 3.2 0.00 1.73 1.57 89 1012.1
20260507030552 5 360 1.6 3.2 0.00 1.91 1.57 89 1012.0
20260507030033 5 360 0.0 6.4 0.00 1.91 1.57 88 1011.9
20260507025504 5 360 0.0 6.4 0.00 1.91 1.57 88 1011.9
20260507025058 5 360 1.6 6.4 0.00 1.91 1.57 88 1011.8
20260507024540 5 360 0.0 4.8 0.00 1.91 1.57 88 1011.9
20260507024019 5 360 1.6 4.8 0.00 1.91 1.57 88 1011.9
20260507023559 5 360 0.0 4.8 0.00 1.91 1.57 88 1011.8
20260507023041 5 360 1.6 8.0 0.00 1.91 1.57 88 1011.9
20260507022513 5 360 3.2 8.0 0.00 1.91 1.57 88 1012.0
20260507022106 5 360 1.6 8.0 0.00 1.91 1.57 88 1011.9
20260507021545 5 360 1.6 8.0 0.00 1.91 1.57 89 1012.0
20260507021028 6 360 3.2 8.0 0.00 1.91 1.57 89 1012.0
20260507020610 6 360 3.2 8.0 0.00 1.91 1.57 89 1012.1
20260507020048 6 360 1.6 8.0 0.00 2.03 1.57 89 1012.1
20260507015528 6 360 0.0 12.9 0.00 2.03 1.57 89 1012.1
20260507015112 6 360 1.6 12.9 0.00 2.03 1.57 89 1012.1
20260507014602 6 360 1.6 8.0 0.00 2.03 1.57 88 1012.1
20260507014031 6 360 3.2 8.0 0.00 2.03 1.57 88 1011.9
20260507013502 6 360 3.2 12.9 0.00 2.03 1.57 88 1011.7
20260507013054 6 360 3.2 12.9 0.00 2.03 1.57 88 1011.8
20260507012537 6 360 3.2 9.7 0.00 2.03 1.57 88 1011.8
20260507012016 6 360 3.2 14.5 0.00 2.03 1.57 88 1011.5
20260507011604 6 360 4.8 14.5 0.00 2.03 1.57 88 1011.5
20260507011042 6 360 6.4 14.5 0.00 2.03 1.57 88 1011.5
20260507010512 6 360 4.8 17.7 0.00 2.13 1.57 88 1011.7
20260507010112 6 360 4.8 19.3 0.00 2.13 1.57 89 1011.6
20260507005544 6 360 3.2 19.3 0.00 2.13 1.57 89 1011.6
20260507005024 6 360 4.8 9.7 0.00 2.13 1.57 89 1011.6
20260507004617 6 360 1.6 9.7 0.00 2.13 1.57 89 1011.5
20260507004048 6 360 4.8 9.7 0.00 2.13 1.57 88 1011.2
20260507003527 6 360 4.8 14.5 0.00 2.13 1.57 88 1011.2
20260507003110 6 360 3.2 14.5 0.00 2.13 1.57 89 1011.1
20260507002550 7 360 3.2 9.7 0.00 2.13 1.57 88 1011.0
20260507002031 7 360 3.2 9.7 0.00 2.13 1.57 88 1010.9
20260507001511 7 360 3.2 9.7 0.00 2.13 1.57 88 1010.7
20260507001054 7 360 3.2 9.7 0.00 2.13 1.57 88 1010.7
20260507000533 7 360 1.6 8.0 0.00 2.51 1.57 88 1010.7
20260507000007 7 360 3.2 14.5 0.00 2.51 1.57 88 1010.8
20260506235559 7 360 3.2 14.5 0.00 2.51 1.57 88 1010.6
20260506235036 7 360 1.6 9.7 0.00 2.51 1.57 88 1010.5
20260506234517 7 360 3.2 9.7 0.00 2.51 1.57 87 1010.5
20260506234102 7 360 1.6 9.7 0.00 2.51 1.57 87 1010.6
20260506233542 7 360 3.2 14.5 0.00 2.51 1.57 86 1010.5
20260506233022 8 360 3.2 16.1 0.00 2.51 1.57 86 1010.5
20260506232605 8 360 4.8 17.7 0.00 2.51 1.57 85 1010.3
20260506232044 8 360 4.8 17.7 0.00 2.51 1.57 84 1010.2
20260506231514 8 360 4.8 22.5 0.00 2.51 1.57 83 1010.2
20260506231105 8 80 1.6 19.3 0.00 2.51 1.57 83 1010.2
20260506230543 8 9 3.2 14.5 0.00 2.87 1.57 82 1010.0
20260506230024 8 77 4.8 19.3 0.00 2.87 1.57 82 1009.9
20260506225607 8 95 3.2 19.3 0.00 2.87 1.57 83 1009.8
20260506225048 8 66 3.2 8.0 0.00 2.87 1.57 86 1009.7
20260506224529 8 189 1.6 11.3 0.00 2.87 1.57 89 1009.6
20260506224111 8 290 3.2 11.3 0.00 2.87 1.57 90 1009.6
20260506223555 8 246 0.0 4.8 0.00 2.87 1.57 90 1009.4
20260506223034 8 231 1.6 4.8 0.00 2.87 1.57 89 1009.3
20260506222515 8 179 1.6 4.8 0.00 2.87 1.57 89 1009.2
20260506222059 8 179 1.6 3.2 0.00 2.87 1.57 89 1009.0
20260506221538 8 177 0.0 4.8 0.00 2.87 1.57 89 1009.1
20260506221008 8 178 0.0 4.8 0.00 2.87 1.57 89 1009.1
20260506220601 8 151 0.0 4.8 0.00 2.87 1.57 89 1009.1
20260506220046 8 150 0.0 4.8 0.00 2.87 1.57 88 1009.2
20260506215519 8 150 0.0 4.8 0.00 2.87 1.57 88 1009.1
20260506215101 8 148 0.0 3.2 0.00 2.87 1.57 88 1009.0
20260506214550 8 149 0.0 4.8 0.00 2.87 1.57 88 1009.0
20260506214023 8 149 1.6 4.8 0.00 2.87 1.57 88 1009.0
20260506213603 8 124 0.0 3.2 0.00 2.87 1.57 89 1008.9
20260506213044 8 124 0.0 3.2 0.00 2.87 1.57 88 1008.9
20260506212525 8 124 0.0 3.2 0.00 2.87 1.57 89 1008.9
20260506212108 8 124 0.0 0.0 0.00 2.87 1.57 89 1008.9
20260506211546 8 125 0.0 0.0 0.00 2.87 1.57 88 1008.9
20260506211029 8 125 0.0 0.0 0.00 2.87 1.57 88 1009.1
20260506210610 8 123 0.0 0.0 0.00 2.87 1.57 88 1009.0
20260506210051 8 116 0.0 0.0 0.00 2.87 1.57 88 1009.0
20260506205531 8 360 0.0 0.0 0.00 2.87 1.57 89 1008.8
20260506205004 8 360 0.0 0.0 0.00 2.87 1.57 88 1008.9
20260506204555 8 360 0.0 0.0 0.00 2.87 1.57 88 1009.0
20260506204035 8 360 0.0 0.0 0.00 2.87 1.57 89 1009.0
20260506203516 8 105 0.0 0.0 0.00 2.87 1.57 89 1009.0
20260506203059 8 103 0.0 0.0 0.00 2.87 1.57 89 1009.0
20260506202538 8 103 0.0 0.0 0.00 2.87 1.57 89 1009.0
20260506202014 8 103 0.0 0.0 0.00 2.87 1.57 90 1009.0
20260506201605 8 103 0.0 1.6 0.00 2.87 1.57 90 1009.1
20260506201042 8 103 0.0 3.2 0.00 2.87 1.57 91 1009.1
20260506200522 7 103 1.6 3.2 0.00 2.87 1.57 91 1009.2
20260506200108 7 104 0.0 1.6 0.00 2.87 1.57 91 1009.1
20260506195544 7 105 0.0 3.2 0.00 2.87 1.57 92 1009.1
20260506195026 7 104 0.0 3.2 0.00 2.87 1.57 92 1009.1
20260506194609 7 360 0.0 4.8 0.00 2.87 1.57 92 1009.1
20260506194049 7 103 0.0 3.2 0.00 2.87 1.57 93 1009.2
20260506193528 7 103 0.0 3.2 0.00 2.87 1.57 93 1009.1
20260506193114 7 103 0.0 3.2 0.00 2.87 1.57 93 1009.1
20260506192553 7 103 0.0 6.4 0.00 2.87 1.57 93 1008.9
20260506192035 7 103 1.6 6.4 0.00 2.87 1.57 94 1008.9
20260506191507 7 80 0.0 4.8 0.00 2.87 1.57 94 1008.8
20260506191103 7 81 1.6 4.8 0.00 2.87 1.57 94 1008.9
20260506190540 7 81 0.0 4.8 0.00 2.87 1.57 94 1008.9
20260506190025 7 81 0.0 3.2 0.00 2.87 1.57 94 1009.0
20260506185604 7 81 0.0 3.2 0.00 2.87 1.57 95 1009.0
20260506185045 7 85 0.0 4.8 0.00 2.87 1.57 94 1009.0
20260506184526 7 90 1.6 4.8 0.00 2.87 1.57 94 1009.0
20260506184108 7 360 1.6 3.2 0.00 2.87 1.57 94 1009.0
20260506183549 7 88 0.0 4.8 0.00 2.87 1.57 94 1009.1
20260506183030 7 115 0.0 3.2 0.00 2.87 1.57 94 1009.2
20260506182612 7 117 0.0 3.2 0.00 2.87 1.57 95 1009.0
20260506182051 7 360 0.0 4.8 0.00 2.87 1.57 95 1009.0
20260506181533 7 360 0.0 4.8 0.00 2.87 1.57 95 1009.0
20260506181006 6 360 0.0 4.8 0.00 2.87 1.57 95 1009.0
20260506180557 6 360 0.0 4.8 0.00 2.87 1.57 95 1009.1
20260506180041 6 360 1.6 6.4 0.00 2.87 1.57 94 1009.0
20260506175518 6 360 0.0 4.8 0.00 2.87 1.57 94 1009.0
20260506175105 6 360 1.6 4.8 0.00 2.87 1.57 95 1008.9
20260506174539 6 360 0.0 3.2 0.00 2.87 1.57 94 1008.9
20260506174021 6 360 1.6 4.8 0.00 2.87 1.57 94 1009.1
20260506173602 6 360 1.6 4.8 0.00 2.87 1.57 94 1009.0
20260506173059 6 360 3.2 4.8 0.00 2.87 1.57 94 1008.8
20260506172525 6 360 0.0 0.0 0.00 2.87 1.57 95 1008.7
20260506172108 6 360 0.0 0.0 0.00 2.87 1.57 95 1008.6
20260506171549 6 360 0.0 3.2 0.00 2.87 1.57 95 1008.5
20260506171028 6 360 0.0 3.2 0.00 2.87 1.57 95 1008.5
20260506170611 6 360 0.0 4.8 0.00 2.87 1.57 95 1008.5
20260506170051 6 360 0.0 4.8 0.00 2.87 1.57 95 1008.2
20260506165532 6 360 1.6 4.8 0.00 2.87 1.57 95 1008.2
20260506165013 6 360 0.0 8.0 0.00 2.87 1.57 95 1008.2
20260506164557 6 360 0.0 8.0 0.00 2.87 1.57 95 1008.2
20260506164037 6 360 0.0 3.2 0.03 2.87 1.57 95 1008.3
20260506163510 6 360 0.0 4.8 0.03 2.87 1.57 95 1008.4
20260506163105 6 360 0.0 4.8 0.03 2.87 1.57 95 1008.4
20260506162540 6 360 0.0 4.8 0.03 2.87 1.57 95 1008.3
20260506162022 6 360 0.0 4.8 0.03 2.87 1.57 95 1008.3
20260506161601 6 360 0.0 4.8 0.03 2.87 1.57 96 1008.3
20260506161041 6 360 0.0 0.0 0.03 2.87 1.57 96 1008.2
20260506160522 6 360 0.0 0.0 0.03 2.87 1.57 96 1008.2
20260506160108 6 360 0.0 0.0 0.03 2.87 1.57 95 1008.2
20260506155548 6 360 0.0 0.0 0.03 2.87 1.57 96 1008.3
20260506155015 6 360 0.0 0.0 0.03 2.87 1.57 96 1008.2
20260506154607 6 360 0.0 0.0 0.03 2.87 1.57 96 1008.2
20260506154049 6 360 0.0 0.0 0.00 2.84 1.55 96 1008.2
20260506153530 6 360 0.0 0.0 0.03 2.84 1.55 96 1008.2
20260506153111 6 360 0.0 0.0 0.03 2.84 1.55 96 1008.4
20260506152552 6 360 0.0 0.0 0.03 2.84 1.55 96 1008.1
20260506152033 6 360 0.0 0.0 0.03 2.84 1.55 96 1008.1
20260506151507 6 360 0.0 0.0 0.03 2.84 1.55 96 1008.1
20260506151057 6 360 0.0 1.6 0.03 2.84 1.55 96 1008.1
20260506150537 6 360 0.0 1.6 0.05 2.84 1.55 96 1007.9
20260506150017 6 360 0.0 3.2 0.05 2.84 1.55 96 1008.0
20260506145600 6 360 0.0 3.2 0.05 2.84 1.55 96 1007.9
20260506145039 6 148 0.0 3.2 0.05 2.84 1.55 96 1007.9
20260506144518 6 149 0.0 3.2 0.05 2.84 1.55 96 1007.9
20260506144104 6 148 0.0 3.2 0.05 2.84 1.55 95 1007.9
20260506143543 6 148 1.6 3.2 0.03 2.84 1.52 96 1007.8
20260506143026 6 148 0.0 3.2 0.03 2.84 1.52 96 1008.0
20260506142605 6 148 0.0 3.2 0.03 2.84 1.52 96 1007.7
20260506142047 6 148 0.0 3.2 0.03 2.84 1.52 96 1007.5
20260506141533 6 148 0.0 3.2 0.05 2.84 1.52 96 1007.5
20260506141109 6 148 1.6 3.2 0.05 2.84 1.52 96 1007.5
20260506140552 6 149 0.0 3.2 0.03 2.82 1.50 96 1007.5
20260506140020 6 149 1.6 3.2 0.03 2.82 1.50 96 1007.4
20260506135610 6 148 1.6 3.2 0.03 2.82 1.50 96 1007.3
20260506135057 6 148 1.6 3.2 0.03 2.82 1.50 96 1007.4
20260506134531 6 148 0.0 3.2 0.03 2.82 1.50 96 1007.5
20260506134002 6 149 0.0 3.2 0.05 2.82 1.50 96 1007.5
20260506133555 5 149 0.0 3.2 0.05 2.82 1.50 96 1007.5
20260506133041 5 149 0.0 3.2 0.05 2.82 1.50 96 1007.5
20260506132506 5 149 1.6 3.2 0.05 2.82 1.50 96 1007.5
20260506132059 5 149 0.0 3.2 0.05 2.82 1.50 96 1007.6
20260506131539 5 149 0.0 3.2 0.03 2.79 1.45 96 1007.5
20260506131021 6 148 0.0 4.8 0.03 2.79 1.45 96 1007.5
20260506130602 6 148 1.6 4.8 0.05 2.79 1.45 96 1007.1
20260506130042 6 171 0.0 4.8 0.05 2.79 1.45 96 1007.3
20260506125513 6 171 0.0 4.8 0.05 2.79 1.45 96 1007.1
20260506125106 6 171 1.6 4.8 0.05 2.79 1.45 96 1007.1
20260506124546 6 171 1.6 6.4 0.08 2.79 1.45 96 1007.2
20260506124024 6 171 1.6 6.4 0.05 2.77 1.42 96 1007.1
20260506123605 6 171 1.6 4.8 0.05 2.77 1.42 96 1007.2
20260506123047 6 171 0.0 3.2 0.05 2.77 1.42 96 1007.3
20260506122521 6 172 0.0 3.2 0.05 2.77 1.42 96 1007.3
20260506122109 5 172 0.0 3.2 0.05 2.77 1.42 96 1007.3
20260506121551 5 127 0.0 3.2 0.08 2.77 1.42 96 1007.4
20260506121033 5 127 0.0 6.4 0.08 2.77 1.42 95 1007.5
20260506120504 5 127 1.6 6.4 0.05 2.74 1.42 95 1007.4
20260506120056 5 124 1.6 4.8 0.05 2.74 1.42 95 1007.6